Wilmington, DE

8:47 PM EST on November 19, 2019 (GMT -0500)
New Castle County

Weather History for KILG - September, 2019

Change the Weather History Date:

Tuesday, September 17, 2019

  Actual Average Record
Temperature  
Mean Temperature 70 °F 68 °F  
Max Temperature 81 °F 77 °F 94 °F (1915)
Min Temperature 59 °F 58 °F 43 °F (1986)
Degree Days  
Heating Degree Days 0 2  
Month to date heating degree days 1 11  
Since 1 July heating degree days 1 13  
Cooling Degree Days 5 4  
Month to date cooling degree days 151 100  
Year to date cooling degree days 1381 1093  
Growing Degree Days 22 (Base 50)    
Moisture  
Dew Point 56 °F    
Average Humidity 63    
Maximum Humidity 90    
Minimum Humidity 35    
Precipitation  
Precipitation 0.00 in 0.17 in 1.85 in (1993)
Month to date precipitation 0.29 2.28  
Year to date precipitation 36.41 31.04  
Snow  
Snow 0.00 in 0.00 in 0.00 in (1894)
Month to date snowfall 0.0 0.0  
Since 1 July snowfall 0.0 0.0  
Since 1 September snowfall 0.0 0.0  
Snow Depth 0.00 in    
Sea Level Pressure  
Sea Level Pressure 30.10 in    
Wind  
Wind Speed 9 mph (NE)    
Max Wind Speed 18 mph    
Max Gust Speed 23 mph    
Visibility 10 miles    
Events      
T = Trace of Precipitation, MM = Missing Value Source: NWS Daily Summary

Daily Weather History Graph

Daily Weather History Graph

Search for Another Location

Airport or City:

Astronomy

Sep. 17, 2019 Rise Set
Actual Time 6:45 AM EDT 7:08 PM EDT
Civil Twilight 6:18 AM EDT 7:35 PM EDT
Nautical Twilight 5:46 AM EDT 8:06 PM EDT
Astronomical Twilight 5:13 AM EDT 8:39 PM EDT
Moon 9:10 PM EDT (9/17) 9:46 AM EDT (9/17)
Length of Visible Light 13h 16m
Length of Day
12h 22m
Waning Gibbous, 89% of the Moon is Illuminated
Sep 17
Waning Gibbous
Sep 21
Last Quarter
Sep 28
New
Oct 5
First Quarter
Oct 13
Full

Hourly Weather History & Observations

Time (EDT) Temp. Dew Point Humidity Pressure Visibility Wind Dir Wind Speed Gust Speed Precip Events Conditions
12:51 AM 71.1 °F 66.0 °F 84% 30.04 in 10.0 mi ENE 8.1 mph - N/A   Mostly Cloudy
1:51 AM 70.0 °F 66.9 °F 90% 30.04 in 10.0 mi NE 6.9 mph - N/A   Mostly Cloudy
2:51 AM 70.0 °F 66.0 °F 87% 30.04 in 10.0 mi NE 5.8 mph - N/A   Partly Cloudy
3:51 AM 70.0 °F 64.9 °F 84% 30.04 in 10.0 mi North 4.6 mph - N/A   Overcast
4:51 AM 69.1 °F 64.0 °F 84% 30.05 in 10.0 mi NE 8.1 mph - N/A   Scattered Clouds
5:51 AM 71.1 °F 64.9 °F 81% 30.06 in 10.0 mi ENE 11.5 mph - N/A   Overcast
6:51 AM 70.0 °F 57.9 °F 65% 30.09 in 10.0 mi ENE 12.7 mph - N/A   Overcast
7:51 AM 71.1 °F 55.0 °F 57% 30.11 in 10.0 mi ENE 12.7 mph - N/A   Scattered Clouds
8:51 AM 72.0 °F 54.0 °F 53% 30.13 in 10.0 mi NE 13.8 mph - N/A   Partly Cloudy
9:51 AM 72.0 °F 53.1 °F 51% 30.15 in 10.0 mi ENE 13.8 mph - N/A   Partly Cloudy
10:51 AM 75.0 °F 54.0 °F 48% 30.15 in 10.0 mi NE 15.0 mph 19.6 mph N/A   Scattered Clouds
11:51 AM 77.0 °F 53.1 °F 43% 30.15 in 10.0 mi NE 13.8 mph - N/A   Clear
12:51 PM 78.1 °F 54.0 °F 43% 30.14 in 10.0 mi ENE 10.4 mph - N/A   Clear
1:51 PM 79.0 °F 52.0 °F 39% 30.12 in 10.0 mi East 10.4 mph - N/A   Clear
2:51 PM 79.0 °F 51.1 °F 38% 30.11 in 10.0 mi East 8.1 mph - N/A   Clear
3:51 PM 81.0 °F 50.0 °F 34% 30.09 in 10.0 mi ENE 12.7 mph - N/A   Clear
4:51 PM 81.0 °F 50.0 °F 34% 30.08 in 10.0 mi Variable 6.9 mph - N/A   Clear
5:51 PM 79.0 °F 48.9 °F 35% 30.08 in 10.0 mi NNE 10.4 mph - N/A   Clear
6:51 PM 75.0 °F 48.9 °F 40% 30.09 in 10.0 mi North 8.1 mph - N/A   Clear
7:51 PM 70.0 °F 48.9 °F 47% 30.11 in 10.0 mi North 5.8 mph - N/A   Clear
8:51 PM 68.0 °F 59.0 °F 73% 30.13 in 10.0 mi South 5.8 mph - N/A   Clear
9:51 PM 66.9 °F 55.0 °F 66% 30.14 in 10.0 mi ESE 6.9 mph - N/A   Clear
10:51 PM 64.9 °F 55.0 °F 70% 30.14 in 10.0 mi Calm Calm - N/A   Clear
11:51 PM 61.0 °F 55.0 °F 81% 30.14 in 10.0 mi North 3.5 mph - N/A   Clear